Cosmos 1461 - Orbit

View from above orbital plane
View from above orbital plane
View from above satellite
View from above satellite

Ground track
Ground track

The orbit data is extracted from the following two-line orbital elements,

1 14064U 83044A   13145.17234922  .00002442  00000-0  25262-3 0  1835
2 14064 065.0036 174.4809 0137367 271.0469 200.8159 14.85774832502164
Epoch (UTC): 25 May 2013 04:08:10
Eccentricity: 0.0137367
inclination: 65.0036°
perigee height: 515 km
apogee height: 707 km
right ascension of ascending node: 174.4809°
argument of perigee: 271.0469°
revolutions per day: 14.85774832
mean anomaly at epoch: 200.8159°
orbit number at epoch: 50216

The dashed part of the orbit path shows where the satellite is in the earth's shadow,  

Developed and maintained by Chris Peat, Heavens-Above GmbH. Please read the updated FAQ before sending e-mail. Imprint. DLR